Temperature
11 12 12 12 12 13 13 13 14 14 14 14 14 14 14 14 14 14 14 14 14 14 14 14 15 14 14 15 15 14 14 14 14 14 14 14 14 14 14 14 14 14 14
11 11 12 12 12 12 13 13 13 13 14 14 14 14 14 14 14 14 14 14 14 14 14 14 14 14 14 14 14 14 14 14 14 14 14 14 14 14 14 14 14 14 14
11 11 12 12 12 12 12 12 13 13 13 13 13 13 14 14 14 14 14 14 14 14 14 14 14 14 14 14 14 14 14 14 14 14 14 14 14 14 14 14 14 14 14
11 11 11 11 11 12 12 12 12 13 13 13 13 13 13 13 13 13 14 14 14 14 14 14 14 14 14 13 14 14 14 14 14 14 14 14 14 14 14 14 14 14 14
10 11 11 11 11 11 11 12 12 12 12 12 12 12 13 13 13 13 13 13 13 13 14 14 13 13 13 13 13 13 13 14 14 14 14 13 13 13 14 14 14 14 14
10 10 11 10 11 11 11 11 11 12 12 12 12 12 12 12 12 12 12 13 13 13 13 13 13 13 13 13 13 13 13 13 13 13 13 13 13 13 13 13 14 14 14
10 10 10 10 10 10 11 11 11 11 11 12 12 12 12 12 12 12 12 12 12 12 13 13 13 13 13 13 13 13 13 13 13 13 13 13 13 13 13 13 13 13 13
10 10 10 10 10 10 10 11 11 11 11 11 11 11 12 12 12 12 12 12 12 12 12 12 13 12 12 13 13 13 13 13 13 13 13 13 13 13 13 13 13 13 13
9 9 10 10 10 10 10 10 10 10 11 11 11 11 11 11 12 12 12 12 12 12 12 12 12 12 12 12 13 13 13 13 13 13 12 12 12 13 13 13 13 13 13
8 9 9 9 9 10 10 10 10 10 10 10 11 11 11 11 11 11 11 11 11 11 12 12 12 12 12 12 12 12 12 12 12 12 12 12 12 12 12 12 13 13 13
8 8 8 9 9 9 9 9 10 10 10 10 10 10 10 11 11 11 11 11 11 11 11 11 12 12 12 11 12 12 12 12 12 12 12 12 12 12 12 12 12 13 13
8 8 8 8 8 8 9 9 9 9 9 9 9 10 10 10 10 10 10 10 11 11 11 11 11 11 11 11 11 11 12 12 12 12 12 12 12 12 12 12 12 12 12
7 7 7 7 8 8 8 8 8 8 9 9 9 9 9 9 10 10 10 10 10 10 10 10 11 10 11 11 11 11 11 11 11 11 11 11 11 11 12 12 12 12 12
6 6 6 7 7 7 7 7 8 8 8 8 8 8 9 9 9 9 9 9 10 10 10 10 10 10 10 10 10 10 11 11 11 11 11 11 11 11 11 11 12 11 11
6 6 6 6 6 7 7 7 7 7 7 7 8 8 8 8 8 8 9 9 9 9 9 9 9 9 10 10 10 10 10 10 10 10 11 11 11 11 11 11 11 11 11
5 5 5 5 6 6 6 6 6 6 7 7 7 7 7 7 8 8 8 8 8 8 8 8 8 9 9 9 9 9 9 10 10 10 10 10 10 10 10 10 10 10 10
5 5 5 5 5 5 6 6 6 6 6 6 6 6 7 7 7 7 7 7 7 7 7 8 8 8 8 8 9 9 9 9 9 9 9 10 10 10 10 10 10 10 10
4 4 4 4 4 5 5 5 5 5 5 6 6 6 6 6 6 6 6 6 7 7 7 7 7 7 7 8 8 8 8 9 9 9 9 9 9 9 9 9 9 10 10
4 4 4 4 4 4 5 5 5 5 5 5 5 5 5 5 5 5 6 6 6 6 6 6 6 6 7 7 7 7 7 8 8 8 8 8 9 9 9 9 9 9 9
3 3 3 3 4 4 4 4 4 4 4 4 4 4 5 5 5 5 5 5 5 5 5 6 6 6 6 6 6 6 7 7 7 8 8 8 8 8 8 8 8 8 9
3 3 3 3 3 3 3 3 4 4 4 4 4 4 4 4 4 4 4 4 5 5 5 5 5 5 5 5 5 6 6 6 7 7 7 7 7 7 7 8 8 8 8
2 2 2 3 3 3 3 3 3 3 3 3 3 3 3 3 3 3 4 4 4 4 4 4 4 4 5 4 4 4 4 5 6 6 7 7 7 7 7 7 7 7 8
2 2 2 2 2 2 2 2 2 2 2 3 3 3 3 3 2 3 3 3 3 3 3 3 3 3 4 4 4 3 3 3 3 5 6 6 6 6 6 7 7 7 7
2 2 2 1 1 2 2 2 1 1 2 2 2 2 2 2 2 2 2 2 2 2 2 3 3 3 3 3 3 3 3 3 3 3 4 5 5 5 6 6 6 6 6
1 1 1 1 1 1 1 1 1 1 1 1 1 1 1 1 1 1 1 1 2 2 2 2 2 2 2 2 2 2 3 3 2 2 2 3 4 5 5 5 5 6 6
1 1 1 1 1 1 1 1 1 1 1 1 1 1 1 1 1 1 1 1 1 1 1 1 1 1 1 1 2 2 2 2 2 2 2 2 3 4 4 4 5 5 5
Wind_Speed
2 7 5 6 8 9 10 11 12 12 13 13 12 12 13 12 12 12 12 12 13 14 14 14 14 14 14 15 15 15 15 15 15 14 14 14 14 14 14 15 14 14 16
2 4 3 5 8 9 9 11 12 12 12 12 12 12 12 12 12 12 12 12 12 13 13 14 14 14 14 14 14 14 15 14 14 14 14 13 13 13 14 14 13 13 15
2 3 3 6 8 9 10 10 11 11 11 12 12 12 12 12 11 11 12 12 12 12 12 13 13 13 13 13 13 13 14 14 13 13 12 11 12 13 13 13 14 14 14
4 4 4 6 8 9 9 10 11 11 11 11 11 12 12 11 11 11 12 12 12 12 12 12 12 12 12 12 12 12 12 12 12 11 10 9 9 12 12 13 13 13 13
6 6 5 8 9 9 9 9 10 11 10 11 11 11 11 11 11 11 11 12 12 11 11 11 11 10 11 11 11 11 12 11 11 10 9 9 8 10 12 12 12 12 13
6 7 6 9 9 9 9 9 10 10 10 10 11 11 10 11 11 11 11 11 12 11 10 10 10 10 10 10 10 10 10 11 10 9 8 8 8 9 11 11 11 11 12
7 8 8 9 9 9 10 9 9 10 10 10 10 10 10 10 10 10 10 11 11 10 10 10 9 9 9 9 9 10 10 10 9 8 6 7 7 9 10 10 10 10 11
8 9 9 9 9 9 9 10 9 9 9 10 10 9 10 10 10 10 10 10 10 9 9 9 8 8 8 9 9 9 9 8 8 7 6 5 7 8 8 9 9 9 10
9 9 10 10 9 9 9 10 10 9 9 10 10 10 10 9 9 10 10 9 9 9 8 8 7 7 7 8 8 9 9 8 7 6 5 4 6 7 7 8 8 8 8
8 8 9 10 10 9 8 9 10 10 9 9 10 10 9 9 9 9 9 9 8 8 8 8 7 7 7 8 8 9 9 8 6 5 4 3 5 5 6 6 7 7 7
5 6 8 8 9 8 8 7 8 9 9 9 9 10 9 8 8 7 8 8 8 8 7 7 7 7 7 7 7 8 7 6 5 4 3 3 4 4 5 5 5 6 6
4 4 6 6 7 7 6 6 7 7 7 8 8 8 8 7 7 7 7 7 7 7 7 6 6 7 6 6 6 6 5 5 5 4 3 2 2 3 4 4 4 5 4
2 2 3 5 6 6 6 6 6 6 6 7 8 7 7 7 6 6 6 6 6 6 5 5 5 5 5 5 4 4 4 4 3 3 2 2 1 2 3 4 4 4 4
2 1 2 4 5 5 5 5 5 5 5 5 5 6 6 5 5 5 4 4 4 4 4 4 4 4 4 3 3 3 3 2 2 2 1 0 1 1 2 3 4 4 4
2 1 0 2 3 4 4 4 4 4 4 4 4 5 6 4 4 4 3 4 4 4 4 4 3 4 4 3 3 3 2 1 1 1 0 1 2 1 1 3 3 4 4
2 1 1 1 2 3 3 3 3 4 4 4 4 4 5 4 4 3 3 3 3 3 3 3 2 3 2 2 2 2 1 0 0 1 1 2 2 2 3 3 3 4 4
3 1 1 1 2 2 1 2 3 3 3 4 4 4 5 5 4 4 3 3 3 2 3 3 3 3 2 2 2 2 1 1 1 1 1 2 2 3 3 4 3 4 4
4 2 1 1 1 1 1 1 2 3 3 3 3 4 4 4 4 3 2 3 3 3 3 2 2 1 1 2 2 2 2 2 2 2 1 1 1 2 3 4 4 4 4
4 4 2 2 1 0 1 1 2 3 3 3 3 3 3 3 3 3 2 2 2 2 2 2 2 1 1 2 2 2 1 2 2 1 1 0 1 1 2 4 4 3 4
4 4 3 2 2 1 1 1 1 2 2 3 3 2 2 2 3 3 2 2 2 2 1 1 1 1 1 1 2 2 2 2 2 1 1 1 1 1 1 1 2 2 3
3 3 3 3 3 2 1 1 1 1 0 1 3 2 2 3 3 3 3 3 2 1 1 1 1 1 1 1 1 2 2 2 2 1 1 1 1 1 1 1 1 2 2
4 4 3 4 3 3 3 3 3 2 2 1 2 3 3 3 3 3 3 2 2 1 1 1 1 1 1 1 1 1 1 2 2 2 2 2 1 1 1 2 2 2 2
5 5 4 4 4 4 3 2 1 1 0 0 1 1 3 3 3 3 3 3 3 1 1 1 1 1 1 1 1 1 1 2 3 2 1 1 1 1 1 2 3 3 4
6 5 4 4 3 4 4 3 4 3 2 2 2 2 3 3 3 3 3 3 3 2 2 2 1 1 1 2 2 1 2 1 1 2 2 2 2 2 2 2 3 4 5
6 5 4 4 4 4 4 5 5 4 3 2 2 2 2 3 2 3 3 2 2 2 2 2 2 2 2 2 2 2 2 2 2 2 4 4 3 2 2 2 3 4 5
5 4 4 4 4 4 4 5 5 5 4 3 3 3 2 2 2 2 3 3 2 2 2 2 3 2 2 2 2 2 2 2 2 2 3 4 5 4 3 3 3 4 5
Wind_Direction
307 326 344 36 51 56 55 58 59 57 55 57 61 65 69 71 74 73 72 72 72 72 73 73 73 74 75 76 77 78 79 78 76 76 77 78 82 83 84 85 85 85 88
295 324 13 54 58 60 61 61 61 59 56 57 59 63 67 72 74 74 71 71 72 73 74 74 72 72 74 77 78 78 79 78 75 75 75 76 79 82 85 87 87 89 88
35 6 22 67 66 63 63 64 63 61 59 59 59 60 63 66 70 73 71 69 71 73 74 74 73 71 72 74 78 80 80 79 76 75 73 74 80 84 87 90 91 90 90
52 31 24 72 72 68 67 67 65 64 62 60 60 60 60 62 66 68 70 68 67 69 71 74 75 74 71 73 77 79 81 79 76 76 73 72 79 85 86 90 93 93 92
51 38 37 65 68 69 71 70 68 64 64 62 61 62 61 60 64 65 70 69 66 66 69 71 71 75 74 73 76 77 78 75 72 72 74 75 78 86 87 89 91 95 95
53 43 48 66 67 65 66 72 69 66 64 63 61 62 62 61 62 64 67 72 70 67 67 70 68 69 72 73 74 75 72 73 74 70 74 80 82 88 89 91 92 96 97
59 48 52 63 65 66 63 64 69 66 65 63 62 62 61 60 61 62 66 71 72 70 69 69 69 70 66 67 72 73 71 73 74 72 75 86 92 90 89 91 93 95 100
69 52 56 61 61 62 63 61 64 67 65 64 62 62 62 61 62 62 65 68 70 71 69 70 67 67 69 65 66 68 67 72 74 76 77 89 99 95 94 91 92 97 98
66 55 46 49 55 57 61 61 58 61 66 64 61 61 64 62 61 63 64 65 67 66 67 68 67 65 68 65 64 65 67 70 73 77 80 96 108 102 99 98 95 95 99
61 54 45 44 45 46 55 61 60 58 63 66 62 59 62 65 63 63 61 60 62 66 64 64 66 65 64 64 64 66 67 71 72 71 72 101 113 109 104 104 102 98 98
55 46 43 42 41 42 50 59 63 63 59 64 66 63 62 59 61 60 58 60 62 64 61 60 60 61 57 57 60 65 68 70 70 71 70 98 112 118 115 115 116 107 105
48 42 40 37 36 39 46 53 61 63 62 60 62 63 61 59 61 61 65 62 60 62 60 56 56 55 49 46 51 62 68 69 69 74 78 82 105 120 127 127 129 123 120
99 45 33 34 32 40 40 48 51 56 59 59 58 58 60 58 58 60 63 61 59 56 51 47 48 39 34 36 53 66 68 76 70 73 88 71 77 112 127 136 146 144 142
94 62 20 37 35 39 44 45 47 49 50 49 54 59 62 51 45 50 52 47 48 42 30 33 28 20 15 25 57 65 67 79 82 75 99 131 128 99 138 146 155 163 158
115 92 21 27 45 38 48 46 44 42 49 53 58 60 59 52 38 39 44 42 35 29 20 11 7 3 2 9 42 57 48 65 117 119 164 226 211 189 168 183 173 177 180
161 190 199 21 58 51 52 51 43 36 46 55 53 46 51 52 45 34 28 30 24 11 3 0 354 354 349 1 12 21 11 346 222 226 233 230 220 217 215 210 204 195 192
181 189 206 153 53 60 60 65 43 35 42 42 41 42 47 51 49 43 22 14 4 348 357 4 7 12 7 4 348 340 346 314 272 259 242 232 230 224 222 220 212 208 205
179 187 217 171 55 54 47 73 55 42 33 35 42 39 45 46 43 44 23 359 356 4 10 360 5 14 358 349 329 304 311 302 283 261 245 242 235 227 228 228 229 227 225
186 190 200 187 169 189 86 77 64 48 26 20 33 28 34 36 36 32 10 350 3 13 10 359 3 349 333 337 312 298 283 263 263 258 277 229 214 212 223 235 231 230 234
190 188 190 187 193 213 135 74 64 47 17 6 9 13 26 23 27 25 6 353 12 10 356 9 358 349 303 298 307 314 289 261 245 220 241 271 244 234 254 261 218 228 240
187 192 196 190 205 198 176 184 179 210 261 337 347 6 11 11 11 13 4 352 358 345 321 338 355 346 334 345 4 340 327 293 250 243 261 269 292 266 250 248 230 235 250
196 202 206 205 216 215 192 199 191 197 206 257 319 352 8 14 7 7 5 341 334 328 330 330 357 330 331 5 32 5 329 324 317 290 246 218 250 345 294 258 261 254 260
202 206 214 214 227 215 185 175 172 147 246 303 302 318 344 351 352 349 340 333 331 307 257 292 290 315 289 305 322 159 193 243 309 299 284 250 240 246 278 282 258 269 262
211 206 211 215 231 209 181 180 179 188 216 246 242 253 311 329 336 337 330 327 319 313 252 260 297 286 240 270 290 279 259 238 236 284 301 293 267 251 244 276 268 266 261
207 203 210 216 225 206 193 191 188 198 219 238 234 247 280 313 318 319 314 308 310 307 272 260 276 260 242 256 271 289 287 279 247 246 269 287 298 262 249 261 261 261 258
202 199 205 214 224 206 202 200 194 199 209 228 238 234 246 263 284 301 306 306 309 304 291 265 262 261 254 253 263 273 278 257 245 257 257 269 281 284 276 257 252 253 254
Height
1543 1544 1544 1544 1545 1545 1545 1544 1544 1544 1544 1543 1543 1542 1542 1542 1542 1541 1541 1541 1541 1541 1541 1541 1541 1541 1541 1541 1540 1540 1540 1540 1540 1541 1541 1541 1541 1541 1541 1541 1541 1541 1542
1542 1543 1543 1544 1544 1544 1544 1544 1544 1544 1544 1543 1543 1543 1543 1542 1542 1542 1542 1542 1542 1542 1542 1542 1541 1541 1541 1542 1542 1542 1541 1541 1542 1542 1542 1542 1543 1543 1543 1543 1543 1543 1543
1542 1542 1543 1543 1544 1544 1544 1544 1544 1544 1544 1543 1543 1543 1543 1543 1542 1542 1542 1542 1542 1542 1542 1542 1542 1542 1542 1542 1543 1543 1543 1543 1543 1543 1543 1544 1544 1544 1544 1545 1545 1545 1545
1541 1542 1542 1543 1543 1543 1543 1543 1543 1543 1543 1543 1543 1543 1543 1542 1542 1542 1542 1542 1542 1542 1542 1542 1543 1543 1543 1543 1543 1544 1544 1544 1544 1544 1545 1545 1545 1546 1546 1546 1546 1546 1546
1541 1541 1541 1542 1542 1542 1542 1543 1543 1542 1543 1542 1543 1542 1542 1542 1542 1542 1542 1542 1542 1542 1542 1543 1543 1543 1544 1544 1544 1544 1544 1545 1545 1545 1546 1546 1546 1547 1547 1547 1547 1547 1548
1540 1541 1541 1541 1541 1541 1542 1542 1542 1542 1542 1542 1542 1542 1542 1542 1542 1541 1541 1542 1542 1542 1542 1543 1543 1543 1544 1544 1544 1545 1545 1545 1546 1546 1546 1547 1547 1548 1548 1548 1548 1548 1549
1539 1540 1540 1540 1541 1541 1541 1541 1541 1541 1541 1541 1541 1541 1541 1541 1541 1541 1541 1541 1541 1542 1542 1542 1543 1543 1544 1544 1544 1545 1545 1546 1546 1546 1547 1547 1548 1548 1549 1549 1549 1549 1549
1539 1539 1539 1540 1540 1540 1540 1540 1540 1540 1540 1540 1540 1540 1541 1541 1541 1540 1540 1541 1541 1541 1541 1542 1542 1543 1543 1544 1544 1545 1545 1546 1546 1547 1547 1547 1548 1548 1549 1549 1549 1549 1550
1539 1539 1538 1539 1539 1539 1539 1539 1539 1539 1539 1539 1539 1539 1539 1540 1540 1540 1540 1540 1540 1541 1541 1541 1541 1542 1543 1543 1544 1544 1545 1545 1546 1546 1547 1547 1548 1548 1549 1549 1549 1550 1550
1538 1538 1538 1538 1538 1538 1538 1538 1538 1538 1538 1538 1538 1538 1538 1539 1539 1539 1539 1539 1540 1540 1540 1540 1541 1541 1542 1542 1543 1543 1544 1544 1545 1546 1546 1547 1547 1548 1548 1549 1549 1549 1550
1537 1537 1537 1537 1537 1537 1537 1537 1537 1537 1537 1537 1537 1537 1537 1537 1538 1538 1538 1538 1539 1539 1539 1539 1540 1540 1541 1541 1542 1542 1543 1543 1544 1545 1545 1546 1546 1547 1548 1548 1548 1549 1549
1535 1536 1536 1536 1536 1536 1536 1536 1536 1536 1536 1536 1536 1536 1536 1536 1536 1537 1537 1537 1537 1538 1538 1538 1539 1539 1540 1540 1541 1541 1542 1542 1543 1543 1544 1545 1545 1546 1546 1547 1547 1548 1549
1534 1534 1535 1535 1535 1535 1535 1535 1534 1534 1535 1535 1534 1534 1535 1535 1535 1535 1535 1536 1536 1536 1536 1537 1538 1538 1538 1539 1539 1540 1540 1541 1541 1542 1543 1543 1544 1545 1545 1545 1546 1547 1547
1532 1532 1533 1533 1533 1534 1534 1534 1533 1533 1533 1533 1533 1533 1533 1533 1533 1534 1534 1534 1534 1534 1535 1535 1536 1537 1537 1538 1538 1538 1539 1539 1540 1540 1541 1542 1542 1543 1544 1544 1544 1545 1546
1530 1530 1531 1531 1531 1532 1532 1532 1532 1531 1531 1531 1531 1531 1532 1532 1532 1532 1532 1533 1533 1533 1533 1534 1534 1535 1536 1536 1536 1537 1537 1538 1538 1539 1539 1540 1541 1541 1542 1543 1543 1544 1545
1527 1528 1529 1529 1529 1530 1530 1530 1530 1530 1529 1529 1529 1530 1530 1530 1530 1530 1531 1531 1531 1532 1532 1532 1533 1533 1533 1534 1534 1535 1535 1536 1536 1537 1537 1538 1539 1539 1540 1541 1541 1542 1543
1525 1526 1526 1527 1527 1528 1528 1528 1528 1528 1528 1528 1528 1528 1528 1528 1528 1528 1529 1529 1529 1530 1530 1530 1531 1531 1531 1532 1532 1532 1533 1533 1534 1534 1535 1535 1536 1537 1538 1539 1539 1540 1540
1523 1523 1524 1524 1524 1525 1525 1526 1526 1526 1526 1526 1526 1526 1526 1526 1526 1526 1526 1527 1527 1527 1527 1528 1528 1528 1528 1529 1529 1530 1530 1531 1531 1531 1532 1532 1533 1534 1535 1536 1537 1537 1538
1520 1520 1521 1521 1521 1522 1523 1523 1523 1524 1524 1523 1523 1523 1523 1523 1523 1523 1524 1524 1524 1524 1524 1525 1525 1525 1526 1526 1526 1527 1527 1528 1528 1529 1529 1529 1530 1531 1532 1533 1534 1534 1535
1516 1517 1517 1518 1519 1519 1519 1520 1520 1521 1521 1521 1521 1521 1521 1521 1521 1521 1521 1521 1521 1521 1522 1522 1522 1523 1523 1523 1523 1524 1524 1525 1525 1525 1526 1527 1527 1528 1529 1529 1530 1531 1531
1513 1513 1514 1515 1515 1515 1515 1515 1516 1516 1517 1518 1518 1518 1518 1518 1518 1518 1518 1518 1518 1518 1518 1519 1519 1520 1520 1520 1520 1519 1520 1521 1521 1522 1523 1523 1524 1525 1525 1526 1527 1527 1528
1509 1510 1510 1511 1511 1512 1512 1513 1513 1514 1514 1515 1515 1515 1515 1515 1515 1515 1515 1515 1515 1515 1516 1516 1516 1516 1516 1517 1517 1516 1516 1517 1517 1518 1518 1519 1520 1521 1522 1522 1523 1524 1524
1505 1505 1506 1507 1508 1508 1509 1509 1510 1511 1511 1511 1511 1511 1512 1512 1512 1512 1512 1512 1512 1512 1512 1513 1513 1513 1513 1514 1515 1516 1515 1514 1513 1513 1514 1515 1516 1516 1517 1518 1519 1520 1520
1500 1501 1502 1503 1503 1504 1505 1506 1506 1506 1506 1507 1507 1508 1509 1509 1509 1509 1509 1509 1509 1509 1509 1509 1510 1510 1511 1511 1512 1513 1514 1512 1512 1510 1510 1511 1512 1512 1513 1514 1514 1515 1516
1496 1497 1498 1498 1499 1500 1501 1502 1502 1503 1503 1504 1504 1504 1505 1505 1505 1506 1505 1505 1505 1505 1506 1506 1506 1507 1507 1508 1508 1508 1509 1510 1509 1509 1506 1506 1507 1508 1508 1509 1510 1511 1511
1491 1492 1493 1494 1494 1495 1496 1497 1498 1498 1499 1499 1500 1500 1500 1501 1501 1501 1501 1501 1501 1501 1502 1502 1503 1503 1503 1504 1504 1505 1505 1505 1505 1505 1503 1502 1502 1502 1503 1504 1505 1506 1506